Location: Asheville, NC
(35.6000°N, 82.5500°W)
Time: 12:47:47
(UTC-04:00)

Iridium 28 - Pass Details

Date: 09 January 2018
Orbit: 771 x 775 km, 86.4° (Epoch: 17 June)

Event Time Altitude Azimuth Distance (km) Brightness Sun altitude
Rises 05:48:05 0° 153° (SSE) 3,232 9.3 -22.3°
Reaches altitude 10° 05:50:41 10° 142° (SE) 2,310 8.6 -21.8°
Maximum altitude 05:55:04 29° 84° (E) 1,405 7.5 -20.9°
Drops below altitude 10° 05:59:27 10° 26° (NNE) 2,324 8.1 -20.0°
Sets 06:02:04 0° 15° (NNE) 3,256 8.8 -19.5°
